Wind_Speed
15 15 15 16 16 16 17 18 17 18 19 20 21 21 22 22 22 21 21 21 22 21 21 21 21 20 20 20 20 20 20 19 19 18 19 19 20 19
16 16 16 16 17 17 17 17 17 18 18 20 22 22 22 22 22 22 23 23 23 22 22 22 21 21 21 20 20 19 19 19 19 19 19 19 19 20
18 17 17 17 17 17 17 17 18 18 18 19 21 21 22 22 23 23 23 24 24 24 24 24 23 23 22 21 20 19 19 19 19 20 20 20 19 19
18 18 18 18 18 17 17 18 19 19 20 20 21 22 22 22 23 24 23 23 24 24 24 24 24 24 23 22 21 20 20 20 20 20 21 20 20 19
19 20 20 20 19 20 20 20 20 20 21 21 21 22 23 23 23 22 22 22 22 23 23 23 23 24 23 22 22 22 21 21 21 21 21 21 20 20
21 21 22 21 21 22 22 22 21 21 21 21 21 22 23 23 23 23 22 22 22 22 22 22 23 23 23 23 23 22 22 22 22 22 22 22 22 22
22 22 22 22 22 22 22 22 22 22 22 22 22 22 23 23 23 22 22 22 22 22 22 21 22 22 23 23 23 23 23 23 23 22 22 23 23 23
23 22 23 23 22 23 23 23 23 22 22 22 22 22 22 22 22 23 22 22 22 22 23 22 22 22 22 23 23 22 22 23 23 23 23 23 23 23
24 24 24 23 23 23 23 23 22 22 22 22 21 21 21 22 23 23 23 22 22 22 23 22 22 22 22 23 23 24 23 23 24 24 24 24 24 24
25 26 26 25 25 24 24 23 22 22 22 22 22 22 22 22 22 23 23 23 23 23 23 22 23 23 23 23 24 24 25 25 25 25 24 24 24 25
26 26 26 26 26 25 24 24 24 24 23 23 23 22 22 22 22 23 23 23 23 23 24 24 24 24 24 25 25 25 25 25 25 25 25 25 26 26
26 25 25 25 26 25 25 24 24 24 24 23 23 22 22 23 23 23 23 24 24 24 24 25 24 25 25 26 26 26 26 26 26 26 26 26 26 26
25 24 24 25 24 24 24 24 24 23 23 23 23 23 23 23 23 23 24 24 25 25 25 26 26 26 25 25 26 26 26 26 27 27 27 27 27 27
25 24 24 24 24 24 24 24 23 23 23 23 23 24 24 23 23 23 24 25 25 26 26 26 26 26 25 25 25 26 26 26 26 26 27 27 27 28
26 25 24 24 24 24 24 24 23 23 23 24 24 24 23 23 24 24 24 25 25 26 26 26 26 25 25 25 25 26 26 26 26 27 27 27 27 28
25 24 24 23 23 23 24 24 24 24 23 23 23 23 23 23 23 24 24 24 24 25 26 26 26 25 25 25 25 25 26 26 26 26 26 26 26 27
25 25 24 23 23 24 24 24 24 23 23 23 23 22 22 23 24 23 23 24 25 25 26 26 26 25 25 26 26 26 26 26 26 26 26 26 26 26
25 25 25 24 24 25 24 24 23 23 23 23 23 23 22 23 23 24 24 24 24 25 26 26 26 26 25 25 25 25 26 26 26 26 26 26 26 26
25 25 25 25 25 25 25 24 24 23 23 23 23 23 23 23 23 24 24 24 25 25 25 25 25 26 26 26 25 25 25 26 26 26 26 25 26 26
26 26 26 25 25 25 24 24 23 22 22 22 22 23 23 23 23 23 24 24 25 25 25 25 25 25 25 25 25 25 25 26 26 26 26 25 26 25
26 25 25 25 25 24 23 22 21 21 21 21 22 22 22 22 22 22 24 24 24 24 25 25 25 26 25 25 25 25 26 26 27 27 27 27 27 27
25 24 24 24 23 23 22 21 20 20 20 21 22 22 23 23 23 23 23 24 24 24 25 25 25 26 26 25 25 26 26 27 27 27 27 28 28 28
24 23 22 22 23 23 22 21 21 21 21 21 21 22 23 23 23 23 24 24 24 24 24 24 25 25 25 25 25 25 26 27 28 28 28 28 28 29
Wind_Direction
292 294 292 289 288 286 283 279 273 270 264 261 261 261 261 263 260 260 262 263 264 261 259 259 259 259 261 262 261 259 258 256 257 258 259 260 259 259
290 292 292 291 289 288 285 281 276 274 273 269 267 265 263 264 262 262 262 264 263 261 259 260 259 259 261 261 259 257 257 257 257 258 259 260 259 259
288 290 288 290 289 289 286 282 281 280 279 274 272 269 269 267 263 263 263 262 261 261 260 260 260 261 259 258 254 255 256 257 257 256 255 257 258 259
289 290 289 288 287 287 286 284 283 282 281 277 274 271 271 268 264 264 263 261 261 260 260 261 261 259 258 256 253 253 255 256 256 256 254 254 255 256
290 290 290 287 286 284 284 285 282 282 281 279 277 274 272 270 266 264 262 262 261 262 260 261 260 258 256 256 255 253 256 256 256 256 255 255 255 255
289 290 289 287 285 284 284 285 283 281 281 281 279 277 274 271 267 264 262 263 262 263 262 261 260 258 256 255 254 255 256 257 256 256 256 256 256 257
288 288 287 285 284 284 282 285 285 282 281 280 279 276 274 271 268 267 265 262 261 260 260 260 259 258 258 255 255 256 257 257 256 256 257 257 257 257
287 287 287 286 283 283 283 284 284 283 282 280 278 276 274 270 267 266 265 263 261 260 259 259 258 257 257 257 256 255 253 255 255 257 258 257 257 257
287 287 288 286 283 283 283 283 283 283 282 279 277 277 274 271 267 264 262 262 262 261 260 257 256 255 255 255 254 253 252 253 255 257 259 258 257 257
288 288 287 285 284 281 280 282 282 281 280 278 278 276 273 269 266 263 261 262 263 263 261 257 256 254 253 253 254 253 253 254 254 255 257 257 256 257
287 287 287 286 284 281 281 282 281 281 279 277 276 275 274 270 267 264 261 261 261 262 261 261 258 255 255 255 255 255 255 255 255 256 256 256 257 257
288 287 286 285 282 280 280 281 280 280 279 277 274 273 272 271 269 266 264 263 261 260 261 262 261 259 260 257 255 255 256 255 255 257 257 256 257 257
288 289 288 286 284 283 281 279 278 277 276 275 272 271 269 268 267 267 266 264 261 260 261 262 263 263 265 259 256 257 256 255 255 256 258 257 257 258
287 288 289 286 284 283 282 281 278 275 275 275 274 271 269 267 266 265 265 265 264 263 262 263 265 264 264 261 257 257 257 256 257 257 257 258 258 257
285 287 287 286 285 284 282 281 279 277 276 275 273 271 268 265 264 264 265 266 264 263 264 266 266 264 265 263 259 257 256 256 257 257 258 259 257 257
284 285 287 285 285 284 283 282 280 278 276 274 272 271 268 266 265 264 264 265 264 264 265 265 266 266 266 264 260 258 256 255 255 256 257 257 257 256
282 283 284 284 284 284 284 284 282 278 275 273 272 272 271 268 266 264 265 266 265 264 264 264 264 265 264 263 260 258 256 255 255 255 256 258 258 258
281 282 283 283 285 285 284 283 281 279 276 273 272 273 273 270 268 267 267 267 266 265 265 265 265 264 264 264 262 260 257 255 255 255 256 257 257 258
282 282 282 282 284 285 283 282 280 278 275 273 273 273 272 271 270 269 268 267 266 267 265 264 263 263 262 263 261 261 257 255 254 255 257 257 258 258
283 284 282 281 282 283 282 280 278 276 274 273 273 272 272 272 272 272 271 270 268 266 264 263 263 263 262 262 260 261 257 256 255 255 255 255 256 257
283 283 282 281 281 282 281 279 277 276 275 274 273 272 273 275 275 274 273 271 269 268 267 265 264 264 263 263 262 261 259 257 256 255 254 255 256 257
283 282 281 280 280 279 277 277 278 277 277 276 276 275 274 275 276 276 275 272 270 269 268 266 265 265 265 264 262 261 260 258 258 257 256 257 257 257
281 280 281 280 279 277 276 275 278 278 276 276 278 278 276 276 277 275 274 272 270 269 269 267 266 266 266 264 263 262 261 260 260 259 258 258 259 260
Height
5847 5846 5845 5844 5843 5842 5841 5840 5839 5839 5839 5838 5838 5837 5837 5837 5837 5837 5837 5837 5837 5837 5837 5838 5838 5839 5839 5839 5840 5840 5841 5842 5842 5843 5843 5844 5844 5845
5843 5841 5840 5839 5838 5837 5835 5835 5834 5833 5833 5832 5831 5831 5831 5831 5830 5830 5830 5830 5830 5830 5831 5831 5832 5833 5833 5834 5834 5835 5835 5836 5837 5837 5838 5838 5839 5839
5838 5836 5835 5834 5833 5831 5830 5829 5828 5827 5827 5826 5825 5824 5824 5824 5824 5824 5823 5823 5823 5824 5825 5825 5826 5826 5827 5828 5828 5829 5830 5831 5831 5832 5832 5833 5834 5834
5832 5831 5830 5828 5827 5826 5825 5824 5823 5821 5821 5820 5818 5817 5817 5817 5816 5817 5817 5817 5817 5817 5818 5818 5819 5820 5821 5822 5822 5823 5824 5825 5826 5826 5827 5827 5828 5828
5827 5825 5824 5823 5821 5820 5819 5818 5817 5815 5814 5813 5812 5811 5810 5810 5810 5810 5810 5810 5810 5810 5811 5811 5812 5813 5814 5815 5816 5817 5818 5819 5820 5820 5821 5822 5822 5823
5821 5819 5818 5817 5815 5814 5812 5811 5810 5809 5808 5806 5805 5804 5804 5803 5803 5803 5803 5804 5804 5804 5804 5805 5805 5806 5807 5808 5810 5811 5811 5812 5813 5814 5815 5815 5816 5817
5814 5813 5811 5810 5808 5807 5806 5805 5803 5802 5801 5799 5798 5798 5797 5796 5796 5796 5797 5797 5797 5797 5798 5799 5799 5799 5800 5802 5803 5804 5805 5806 5807 5807 5808 5809 5809 5810
5808 5806 5805 5803 5801 5800 5799 5797 5796 5795 5793 5792 5791 5791 5790 5789 5789 5789 5789 5790 5791 5791 5791 5792 5792 5793 5794 5795 5796 5797 5798 5799 5800 5801 5801 5802 5802 5803
5801 5800 5798 5796 5794 5793 5792 5790 5789 5787 5786 5785 5784 5784 5783 5782 5781 5782 5782 5783 5783 5784 5784 5785 5786 5787 5787 5788 5789 5790 5791 5792 5793 5794 5794 5795 5795 5796
5794 5792 5791 5789 5787 5785 5784 5783 5782 5780 5779 5778 5777 5776 5776 5775 5774 5774 5775 5776 5776 5777 5777 5778 5779 5779 5780 5781 5782 5783 5784 5785 5786 5786 5787 5787 5788 5789
5786 5785 5783 5782 5780 5778 5776 5775 5774 5772 5771 5770 5770 5769 5768 5768 5767 5767 5768 5768 5769 5770 5770 5771 5772 5772 5773 5774 5775 5775 5776 5777 5778 5779 5780 5780 5781 5782
5778 5777 5775 5774 5772 5770 5769 5768 5767 5765 5764 5763 5762 5761 5761 5760 5760 5760 5760 5761 5762 5763 5763 5764 5764 5765 5766 5767 5767 5768 5768 5769 5770 5771 5772 5773 5773 5774
5770 5768 5767 5765 5764 5762 5761 5760 5759 5757 5756 5755 5755 5754 5753 5753 5753 5753 5753 5753 5754 5755 5756 5756 5756 5757 5758 5758 5759 5760 5760 5761 5762 5763 5764 5765 5765 5766
5763 5761 5759 5758 5756 5755 5753 5752 5751 5750 5749 5748 5747 5746 5746 5745 5745 5745 5745 5746 5747 5747 5748 5748 5748 5749 5749 5750 5751 5752 5752 5753 5754 5755 5756 5756 5757 5758
5755 5754 5752 5750 5749 5747 5746 5744 5743 5742 5741 5740 5739 5738 5738 5737 5737 5737 5738 5738 5738 5739 5740 5740 5740 5741 5741 5742 5743 5743 5744 5745 5746 5747 5748 5748 5749 5750
5747 5746 5744 5743 5741 5740 5738 5736 5735 5734 5733 5732 5731 5730 5729 5729 5729 5730 5730 5730 5731 5731 5732 5732 5732 5733 5733 5734 5734 5735 5736 5737 5738 5739 5740 5740 5741 5741
5739 5738 5737 5736 5734 5732 5731 5729 5728 5726 5725 5724 5723 5722 5722 5722 5722 5722 5723 5723 5723 5724 5724 5724 5724 5725 5725 5726 5726 5727 5728 5729 5730 5731 5732 5732 5733 5734
5731 5730 5729 5728 5726 5725 5723 5721 5720 5719 5718 5717 5716 5716 5715 5715 5715 5715 5715 5715 5716 5716 5716 5717 5717 5717 5717 5718 5719 5719 5719 5720 5721 5722 5723 5724 5725 5726
5723 5722 5721 5720 5718 5717 5715 5714 5713 5711 5710 5710 5709 5709 5708 5708 5708 5708 5708 5708 5708 5708 5708 5708 5708 5709 5709 5710 5711 5711 5712 5712 5713 5714 5715 5716 5717 5718
5715 5714 5713 5712 5710 5709 5707 5706 5705 5704 5703 5703 5702 5702 5701 5701 5701 5701 5700 5700 5700 5700 5700 5700 5700 5701 5701 5702 5703 5704 5704 5704 5705 5707 5708 5708 5709 5710
5707 5706 5705 5704 5702 5701 5700 5698 5697 5697 5696 5696 5695 5695 5694 5694 5694 5693 5693 5692 5692 5692 5692 5693 5692 5692 5693 5694 5695 5696 5696 5696 5697 5698 5699 5700 5701 5702
5699 5698 5696 5695 5694 5693 5692 5691 5691 5690 5689 5689 5688 5688 5687 5687 5686 5686 5685 5685 5684 5684 5684 5684 5684 5684 5685 5686 5687 5687 5688 5688 5689 5690 5691 5692 5692 5694
5691 5690 5689 5687 5686 5686 5685 5685 5684 5683 5683 5682 5681 5680 5680 5679 5679 5678 5677 5677 5677 5676 5676 5676 5676 5676 5677 5677 5678 5679 5680 5680 5681 5682 5682 5683 5684 5685